Location: Newark
(43.9494°N, 6.8108°E)
Time: 22:18:54
(UTC+00:00)

SR - Visible Passes

Search period start: 15 October 2019 00:00
Search period end: 25 October 2019 00:00
Orbit: 575 x 881 km, 66.7° (Epoch: 15 October)

Date Brightness Start Highest point End Pass type
(mag) Time Alt. Az. Time Alt. Az. Time Alt. Az.
17 Oct ? 04:31:48 10° N 04:33:24 11° NNE 04:35:01 10° NE visible
18 Oct ? 05:22:33 10° NNW 05:27:11 23° NE 05:31:51 10° E visible
19 Oct ? 04:33:28 10° N 04:36:53 16° NNE 04:40:21 10° ENE visible
20 Oct ? 03:45:04 10° N 03:46:26 11° NNE 03:47:47 10° NE visible
21 Oct ? 04:35:41 10° N 04:40:15 23° NE 04:44:49 10° E visible
22 Oct ? 03:46:37 10° N 03:49:56 15° NNE 03:53:16 10° ENE visible
23 Oct ? 02:58:22 10° NNE 02:59:27 10° NNE 03:00:31 10° NE visible
23 Oct ? 04:38:06 10° NNW 04:43:25 34° NE 04:48:44 10° ESE visible
24 Oct ? 03:48:49 10° N 03:53:17 22° NE 03:57:46 10° E visible
